• In United Kingdom
  • List of Countries
  • For 7 days
  • Water Temperature
  • Satellite Maps
  • Weather Map
  • Weather Widgets
  • user-avatar
    Login

    Hourly Weather Yulara

    Today, 19 September, Tuesday

    Time Temperature Precipitation Wind Pressure Humidity
    00:00 +21°C° 0 mm 7 mps 722 mmHg 39%
    01:00 +20°C° 0 mm 6 mps 722 mmHg 42%
    02:00 +19°C° 0 mm 6 mps 722 mmHg 46%
    03:00 +17°C° 0 mm 6 mps 722 mmHg 50%
    04:00 +16°C° 0 mm 5 mps 722 mmHg 52%
    05:00 +15°C° 0 mm 5 mps 723 mmHg 54%
    06:00 +15°C° 0 mm 5 mps 723 mmHg 56%
    07:00 +16°C° 0 mm 6 mps 723 mmHg 51%
    08:00 +19°C° 0 mm 6 mps 723 mmHg 45%
    09:00 +22°C° 0 mm 6 mps 723 mmHg 38%
    10:00 +24°C° 0 mm 6 mps 723 mmHg 34%
    11:00 +26°C° 0 mm 5 mps 723 mmHg 30%
    12:00 +28°C° 0 mm 5 mps 722 mmHg 26%
    13:00 +29°C° 0 mm 4 mps 722 mmHg 24%
    14:00 +30°C° 0 mm 3 mps 721 mmHg 21%
    15:00 +31°C° 0 mm 1 mps 720 mmHg 19%
    16:00 +30°C° 0 mm 1 mps 720 mmHg 21%
    17:00 +28°C° 0 mm 1 mps 720 mmHg 22%
    18:00 +27°C° 0 mm 1 mps 720 mmHg 24%
    19:00 +26°C° 0 mm 2 mps 720 mmHg 25%
    20:00 +25°C° 0 mm 3 mps 720 mmHg 25%
    21:00 +23°C° 0 mm 4 mps 720 mmHg 27%
    22:00 +22°C° 0 mm 5 mps 720 mmHg 29%
    23:00 +22°C° 0 mm 5 mps 720 mmHg 31%

    Tomorrow, 20 September, Wednesday

    Time Temperature Precipitation Wind Pressure Humidity
    00:00 +21°C° 0 mm 6 mps 720 mmHg 33%
    01:00 +20°C° 0 mm 5 mps 720 mmHg 33%
    02:00 +20°C° 0 mm 5 mps 719 mmHg 34%
    03:00 +19°C° 0 mm 5 mps 719 mmHg 35%
    04:00 +18°C° 0 mm 4 mps 719 mmHg 36%
    05:00 +18°C° 0 mm 4 mps 719 mmHg 37%
    06:00 +17°C° 0 mm 3 mps 719 mmHg 38%
    07:00 +20°C° 0 mm 4 mps 720 mmHg 33%
    08:00 +23°C° 0 mm 4 mps 720 mmHg 27%
    09:00 +27°C° 0 mm 5 mps 720 mmHg 22%
    10:00 +29°C° 0 mm 5 mps 720 mmHg 18%
    11:00 +32°C° 0 mm 6 mps 719 mmHg 15%
    12:00 +35°C° 0 mm 6 mps 719 mmHg 12%
    13:00 +35°C° 0 mm 7 mps 718 mmHg 10%
    14:00 +36°C° 0 mm 7 mps 717 mmHg 9%
    15:00 +38°C° 0 mm 7 mps 717 mmHg 8%
    16:00 +35°C° 0 mm 6 mps 717 mmHg 8%
    17:00 +34°C° 0 mm 4 mps 716 mmHg 9%
    18:00 +31°C° 0 mm 3 mps 716 mmHg 10%
    19:00 +30°C° 0 mm 3 mps 717 mmHg 11%
    20:00 +28°C° 0 mm 3 mps 717 mmHg 12%
    21:00 +27°C° 0 mm 3 mps 717 mmHg 13%
    22:00 +26°C° 0 mm 3 mps 717 mmHg 13%
    23:00 +26°C° 0 mm 3 mps 716 mmHg 14%

    Day after tomorrow, 21 September, Thursday

    Time Temperature Precipitation Wind Pressure Humidity
    00:00 +25°C° 0 mm 3 mps 716 mmHg 15%
    01:00 +24°C° 0 mm 3 mps 715 mmHg 15%
    02:00 +24°C° 0 mm 3 mps 715 mmHg 16%
    03:00 +22°C° 0 mm 3 mps 715 mmHg 16%
    04:00 +22°C° 0 mm 3 mps 715 mmHg 17%
    05:00 +21°C° 0 mm 3 mps 715 mmHg 17%
    06:00 +21°C° 0 mm 3 mps 715 mmHg 17%
    07:00 +25°C° 0 mm 4 mps 716 mmHg 15%
    08:00 +28°C° 0 mm 5 mps 717 mmHg 13%
    09:00 +32°C° 0 mm 6 mps 717 mmHg 11%
    10:00 +33°C° 0 mm 6 mps 717 mmHg 10%
    11:00 +35°C° 0 mm 7 mps 717 mmHg 9%
    12:00 +38°C° 0 mm 8 mps 717 mmHg 8%
    13:00 +38°C° 0 mm 8 mps 716 mmHg 8%
    14:00 +39°C° 0 mm 7 mps 715 mmHg 8%
    15:00 +39°C° 0 mm 7 mps 714 mmHg 8%
    16:00 +38°C° 0 mm 6 mps 714 mmHg 9%
    17:00 +36°C° 0 mm 5 mps 714 mmHg 10%
    18:00 +34°C° 0 mm 4 mps 714 mmHg 11%
    19:00 +32°C° 0 mm 4 mps 715 mmHg 12%
    20:00 +30°C° 0 mm 4 mps 715 mmHg 14%
    21:00 +28°C° 0 mm 3 mps 716 mmHg 16%
    22:00 +27°C° 0 mm 3 mps 716 mmHg 18%
    23:00 +26°C° 0 mm 2 mps 716 mmHg 20%

    22 September, Friday

    Time Temperature Precipitation Wind Pressure Humidity
    00:00 +24°C° 0 mm 2 mps 716 mmHg 22%
    01:00 +24°C° 0 mm 2 mps 715 mmHg 24%
    02:00 +23°C° 0 mm 1 mps 715 mmHg 25%
    03:00 +22°C° 0 mm 1 mps 715 mmHg 27%
    04:00 +22°C° 0 mm 1 mps 715 mmHg 28%
    05:00 +21°C° 0 mm 1 mps 715 mmHg 29%
    06:00 +21°C° 0 mm 1 mps 715 mmHg 30%
    07:00 +24°C° 0 mm 1 mps 716 mmHg 26%
    08:00 +27°C° 0 mm 2 mps 716 mmHg 21%
    09:00 +31°C° 0 mm 2 mps 717 mmHg 16%
    10:00 +34°C° 0 mm 3 mps 717 mmHg 14%
    11:00 +35°C° 0 mm 4 mps 716 mmHg 12%
    12:00 +37°C° 0 mm 5 mps 716 mmHg 10%
    13:00 +39°C° 0 mm 6 mps 715 mmHg 9%
    14:00 +39°C° 0 mm 7 mps 714 mmHg 8%
    15:00 +40°C° 0 mm 9 mps 714 mmHg 7%
    16:00 +39°C° 0 mm 8 mps 714 mmHg 7%
    17:00 +38°C° 0 mm 7 mps 713 mmHg 8%
    18:00 +35°C° 0 mm 6 mps 713 mmHg 8%
    19:00 +34°C° 0 mm 5 mps 714 mmHg 9%
    20:00 +32°C° 0 mm 5 mps 714 mmHg 9%
    21:00 +29°C° 0 mm 5 mps 715 mmHg 10%
    22:00 +29°C° 0 mm 5 mps 714 mmHg 11%
    23:00 +28°C° 0 mm 5 mps 714 mmHg 12%

    23 September, Saturday

    Time Temperature Precipitation Wind Pressure Humidity
    00:00 +27°C° 0 mm 5 mps 714 mmHg 12%
    01:00 +26°C° 0 mm 5 mps 714 mmHg 13%
    02:00 +26°C° 0 mm 5 mps 713 mmHg 14%
    03:00 +25°C° 0 mm 5 mps 713 mmHg 15%
    04:00 +23°C° 0 mm 5 mps 713 mmHg 17%
    05:00 +23°C° 0 mm 5 mps 714 mmHg 18%
    06:00 +22°C° 0 mm 6 mps 714 mmHg 19%
    07:00 +23°C° 0 mm 6 mps 715 mmHg 23%
    08:00 +24°C° 0 mm 6 mps 716 mmHg 27%
    09:00 +26°C° 0 mm 6 mps 716 mmHg 31%
    10:00 +28°C° 0 mm 5 mps 716 mmHg 28%
    11:00 +30°C° 0 mm 5 mps 716 mmHg 24%
    12:00 +32°C° 0 mm 4 mps 716 mmHg 21%
    13:00 +34°C° 0 mm 6 mps 715 mmHg 18%
    14:00 +35°C° 0 mm 7 mps 714 mmHg 15%
    15:00 +37°C° 0 mm 9 mps 714 mmHg 13%
    16:00 +35°C° 0 mm 8 mps 714 mmHg 13%
    17:00 +34°C° 0 mm 7 mps 714 mmHg 14%
    18:00 +33°C° 0 mm 6 mps 714 mmHg 14%
    19:00 +30°C° 0 mm 6 mps 714 mmHg 16%
    20:00 +29°C° 0 mm 6 mps 715 mmHg 18%
    21:00 +27°C° 0 mm 5 mps 715 mmHg 19%
    22:00 +26°C° 0 mm 5 mps 715 mmHg 20%
    23:00 +25°C° 0 mm 5 mps 715 mmHg 20%

    24 September, Sunday

    Time Temperature Precipitation Wind Pressure Humidity
    00:00 +22°C° 0 mm 5 mps 715 mmHg 21%
    01:00 +21°C° 0 mm 5 mps 714 mmHg 21%
    02:00 +20°C° 0 mm 4 mps 714 mmHg 21%
    03:00 +19°C° 0 mm 4 mps 714 mmHg 21%
    04:00 +19°C° 0 mm 4 mps 714 mmHg 23%
    05:00 +18°C° 0 mm 4 mps 714 mmHg 24%
    06:00 +18°C° 0 mm 4 mps 715 mmHg 26%
    07:00 +20°C° 0 mm 4 mps 715 mmHg 23%
    08:00 +22°C° 0 mm 5 mps 715 mmHg 20%
    09:00 +26°C° 0 mm 6 mps 716 mmHg 17%
    10:00 +28°C° 0 mm 6 mps 715 mmHg 16%
    11:00 +32°C° 0 mm 6 mps 714 mmHg 14%
    12:00 +34°C° 0 mm 5 mps 714 mmHg 13%
    13:00 +35°C° 0 mm 7 mps 713 mmHg 12%
    14:00 +37°C° 0 mm 8 mps 712 mmHg 11%
    15:00 +38°C° 0 mm 9 mps 711 mmHg 10%
    16:00 +37°C° 0 mm 8 mps 711 mmHg 11%
    17:00 +35°C° 0 mm 7 mps 711 mmHg 12%
    18:00 +35°C° 0 mm 6 mps 711 mmHg 13%
    19:00 +33°C° 0 mm 6 mps 712 mmHg 15%
    20:00 +30°C° 0 mm 5 mps 712 mmHg 17%
    21:00 +29°C° 0 mm 4 mps 712 mmHg 18%
    22:00 +28°C° 0 mm 5 mps 712 mmHg 19%
    23:00 +27°C° 0 mm 5 mps 711 mmHg 20%
    Show more